Tracking 30306 objects as of 23-Apr-2025
HD Live streaming from Space Station
objects crossing your sky now

TITAN 34D R/B(2)

Track TITAN 34D R/B(2) now!


NORAD ID: 19983
Int'l Code: 1989-035C
Perigee: 31,591.0 km
Apogee: 40,474.5 km
Inclination: 8.0 °
Period: 1,448.3 minutes
Semi major axis: 42403 km
RCS: Unknown
Launch date: May 10, 1989
Source: United States (US)
Launch site: AIR FORCE EASTERN TEST RANGE (AFETR)

Note: This is a ROCKET BODY
Your satellite tracking list
Your tracking list is empty




NASA's NSSDC Master Catalog

Two Line Element Set (TLE):
1 19983U 89035C   25111.80485653  .00000039  00000-0  00000-0 0  9996
2 19983   8.0433   4.7729 1047491  49.6304 318.9895  0.99425352 21309
Source of the keplerian elements: McCants